Simultaneous Nadir Overpasses (SNOs) Predictions

Prediction of SNOs between GOES-15 and METOP-A Satellite Orbit:

Table of predicted SNOs for the next 14.0 days since TLE Epoch: 6/16/2017
Index Date Time (GOES-15) GOES-15 Lat,Lon METOP-A Lat,Lon Distance(km) Time Diff (sec)
1 06/17/2017 06:45:58 0.14,-135.36 -0.67,-138.88 401.59 80
2 06/18/2017 06:22:38 0.15,-135.37 0.47,-133.89 168.85 80
3 06/19/2017 18:44:09 -0.14,-135.44 0.51,-138.46 343.53 80
4 06/20/2017 18:20:49 -0.15,-135.44 -0.57,-133.45 226.26 80
5 06/22/2017 06:42:28 0.13,-135.41 -0.47,-138.05 301.32 80
6 06/23/2017 06:19:09 0.15,-135.41 0.67,-133.06 268.03 80
7 06/24/2017 18:40:39 -0.13,-135.46 0.37,-137.61 245.70 80
8 06/25/2017 18:17:20 -0.15,-135.46 -0.78,-132.63 323.13 80
9 06/27/2017 06:38:59 0.13,-135.41 -0.27,-137.22 205.61 80
10 06/28/2017 06:15:39 0.15,-135.41 0.88,-132.23 363.19 80
11 06/29/2017 18:37:10 -0.13,-135.46 0.16,-136.79 150.80 80




NCC Satellite Simultaneous Nadir Overpasses (SNOs) Prediction Service
